This demonstration page uses our WeatherBlox Daily Observations layout. Learn more.

Left ArrowRight Arrow

Hourly Observations for March 1, 2016

Temp ( °F °C ) Dew Point ( °F °C ) Humidity (%) Winds ( mph kmh ) Pressure ( in mb ) Visibility ( mi km ) Precip ( " mm )
12:15 am 00:15 Clear 39 4 30 -1 70 70 SSE 6 9 30.00 1016 10 16 N/A
12:34 am 00:34 Clear 39 4 30 -1 70 70 SSE 6 9 30.00 1016 10 16 N/A
12:54 am 00:54 Clear 37 3 30 -1 75 75 SSE 7 11 29.97 1015 10 16 N/A
1:15 am 01:15 Clear 39 4 32 undefined 75 75 SSE 7 11 29.97 1015 10 16 N/A
1:34 am 01:34 Clear 39 4 30 -1 70 70 SSE 5 7 29.97 1015 10 16 N/A
1:54 am 01:54 Clear 39 4 30 -1 70 70 SSE 7 11 29.97 1015 10 16 N/A
2:15 am 02:15 Clear 41 5 30 -1 66 66 S 7 11 29.94 1014 10 16 N/A
2:34 am 02:34 Clear 41 5 30 -1 66 66 S 8 13 29.94 1014 10 16 N/A
2:55 am 02:55 Clear 41 5 30 -1 66 66 S 7 11 29.94 1014 10 16 N/A
3:14 am 03:14 Clear 41 5 30 -1 66 66 SSE 6 9 29.94 1014 10 16 N/A
3:34 am 03:34 Clear 41 5 30 -1 66 66 S 6 9 29.91 1013 10 16 N/A
3:55 am 03:55 Clear 39 4 30 -1 70 70 N N/A 29.91 1013 10 16 N/A
4:14 am 04:14 Clear 37 3 28 -2 70 70 N N/A 29.91 1013 10 16 N/A
4:34 am 04:34 Clear 39 4 30 -1 70 70 N N/A 29.94 1014 10 16 N/A
4:55 am 04:55 Clear 34 1 30 -1 87 87 N N/A 29.94 1014 10 16 N/A
5:14 am 05:14 Clear 36 2 30 -1 81 81 SE 5 7 29.91 1013 10 16 N/A
5:34 am 05:34 Clear 36 2 30 -1 81 81 SE 5 7 29.91 1013 10 16 N/A
5:55 am 05:55 Clear 37 3 30 -1 75 75 SE 6 9 29.88 1012 10 16 N/A
6:14 am 06:14 Clear 37 3 30 -1 75 75 SSE 7 11 29.88 1012 10 16 N/A
6:34 am 06:34 Clear 37 3 32 undefined 81 81 SSE 7 11 29.88 1012 10 16 N/A
6:55 am 06:55 Clear 39 4 32 undefined 75 75 SSE 8 13 29.85 1011 10 16 N/A
7:14 am 07:14 Clear 39 4 32 undefined 75 75 SSE 8 13 29.85 1011 10 16 N/A
7:34 am 07:34 Sunny 39 4 32 undefined 75 75 SSE 9 15 29.85 1011 10 16 N/A
7:55 am 07:55 Sunny 41 5 32 undefined 70 70 SSE 9 15 29.83 1010 10 16 N/A
8:14 am 08:14 Sunny 41 5 32 undefined 70 70 SSE 10 17 29.83 1010 10 16 N/A
8:34 am 08:34 Partly Cloudy 43 6 32 undefined 66 66 SSE 10 17 29.83 1010 10 16 N/A
8:55 am 08:55 Mostly Cloudy 43 6 32 undefined 66 66 SSE 8 13 29.80 1009 10 16 N/A
9:14 am 09:14 Mostly Cloudy 43 6 32 undefined 66 66 S 15 24 29.80 1009 10 16 N/A
9:34 am 09:34 Cloudy 41 5 36 2 81 81 SSE 16 26 29.77 1008 5 8 N/A
9:55 am 09:55 Cloudy 41 5 37 3 87 87 S 12 19 29.80 1009 10 16 N/A
10:14 am 10:14 Cloudy 41 5 37 3 87 87 S 8 13 29.80 1009 10 16 N/A
10:34 am 10:34 Cloudy 41 5 37 3 87 87 S 9 15 29.80 1009 10 16 N/A
10:55 am 10:55 Cloudy 41 5 37 3 87 87 S 9 15 29.77 1008 4 6 N/A
11:14 am 11:14 Cloudy 41 5 39 4 93 93 S 15 24 29.74 1007 4 6 N/A
11:34 am 11:34 Cloudy 43 6 41 5 93 93 S 9 15 29.71 1006 5 8 N/A
11:55 am 11:55 Cloudy 43 6 43 6 100 100 SSE 9 15 29.68 1005 5 8 N/A
12:14 pm 12:14 Cloudy 43 6 43 6 100 100 S 7 11 29.68 1005 7 11 N/A
12:35 pm 12:35 Cloudy 43 6 43 6 100 100 S 13 20 29.68 1005 10 16 N/A
12:55 pm 12:55 Cloudy 43 6 43 6 100 100 S 9 15 29.68 1005 5 8 N/A
1:14 pm 13:14 Cloudy 45 7 43 6 93 93 S 12 19 29.65 1004 7 11 N/A
1:35 pm 13:35 Cloudy 45 7 45 7 100 100 SSW 13 20 29.62 1003 5 8 N/A
1:55 pm 13:55 Cloudy 45 7 45 7 100 100 SSW 12 19 29.62 1003 4 6 N/A
2:14 pm 14:14 Cloudy 45 7 45 7 100 100 SW 12 19 29.62 1003 4 6 N/A
2:35 pm 14:35 Cloudy 46 8 45 7 93 93 WSW 15 24 29.59 1002 7 11 N/A
2:54 pm 14:54 Cloudy 46 8 45 7 93 93 W 20 31 29.59 1002 10 16 N/A
3:14 pm 15:14 Cloudy 45 7 43 6 93 93 W 26 43 29.62 1003 7 11 N/A
3:35 pm 15:35 Cloudy 43 6 41 5 93 93 W 24 39 29.65 1004 4 6 N/A
3:54 pm 15:54 Cloudy 41 5 41 5 100 100 W 21 33 29.65 1004 4 6 N/A
4:14 pm 16:14 Cloudy 41 5 41 5 100 100 W 18 30 29.68 1005 4 6 N/A
4:35 pm 16:35 Cloudy 37 3 37 3 100 100 W 32 52 29.71 1006 7 11 N/A
4:54 pm 16:54 Cloudy 36 2 34 1 93 93 WNW 35 56 29.74 1007 10 16 N/A
5:15 pm 17:15 Cloudy 34 1 32 undefined 93 93 WNW 30 48 29.74 1007 10 16 N/A
5:35 pm 17:35 Cloudy 32 undefined 30 -1 93 93 WNW 26 43 29.80 1009 10 16 N/A
5:54 pm 17:54 Cloudy 30 -1 28 -2 93 93 WNW 24 39 29.83 1010 10 16 N/A
6:15 pm 18:15 Cloudy 30 -1 28 -2 93 93 NW 29 46 29.85 1011 10 16 N/A
6:34 pm 18:34 Cloudy 30 -1 27 -3 86 86 NW 28 44 29.88 1012 10 16 N/A
6:54 pm 18:54 Cloudy 28 -2 25 -4 86 86 WNW 28 44 29.88 1012 10 16 N/A
7:15 pm 19:15 Cloudy 28 -2 23 -5 80 80 WNW 25 41 29.91 1013 10 16 N/A
7:35 pm 19:35 Cloudy 28 -2 23 -5 80 80 NW 22 35 29.94 1014 10 16 N/A
7:54 pm 19:54 Cloudy 28 -2 23 -5 80 80 NW 28 44 29.94 1014 10 16 N/A
8:15 pm 20:15 Cloudy 28 -2 23 -5 80 80 NW 24 39 29.97 1015 10 16 N/A
8:34 pm 20:34 Cloudy 28 -2 23 -5 80 80 NW 18 30 29.97 1015 10 16 N/A
8:54 pm 20:54 Cloudy 27 -3 23 -5 86 86 NW 23 37 30.00 1016 10 16 N/A
9:15 pm 21:15 Cloudy 27 -3 21 -6 80 80 NW 20 31 30.00 1016 10 16 N/A
9:34 pm 21:34 Cloudy 27 -3 21 -6 80 80 NW 21 33 30.03 1017 10 16 N/A
9:54 pm 21:54 Cloudy 27 -3 19 -7 74 74 NW 17 28 30.03 1017 10 16 N/A
10:15 pm 22:15 Cloudy 27 -3 19 -7 74 74 NW 20 31 30.06 1018 10 16 N/A
10:34 pm 22:34 Cloudy 25 -4 19 -7 80 80 WNW 22 35 30.06 1018 10 16 N/A
10:54 pm 22:54 Cloudy 25 -4 18 -8 74 74 NW 17 28 30.06 1018 10 16 N/A
11:15 pm 23:15 Cloudy 25 -4 18 -8 74 74 NW 16 26 N/A 10 16 N/A
11:34 pm 23:34 Cloudy 25 -4 18 -8 74 74 NW 13 20 N/A 10 16 N/A
11:54 pm 23:54 Cloudy 25 -4 18 -8 74 74 WNW 17 28 N/A 10 16 N/A

Powered by AerisWeather